User: anonymous   Login
Location: Unspecified
(0.0000°N, 0.0000°E)
Time: 12:41:07
(UTC+00:00)
Language:

ELISA W23 - Orbit

View from above orbital plane
View from above orbital plane
View from above satellite
View from above satellite

Ground track
Ground track

The orbit data is extracted from the following two-line orbital elements,

1 38007U 11076A   18194.83442708 0.00000100  00000-0  18685-4 0    08
2 38007  97.9932 259.8921 0002500 105.1910 254.8089 14.65008776    09
Epoch (UTC): 13 July 2018 20:01:34
Eccentricity: 0.0002500
inclination: 97.9932°
perigee height: 675 km
apogee height: 679 km
right ascension of ascending node: 259.8921°
argument of perigee: 105.1910°
revolutions per day: 14.65008776
mean anomaly at epoch: 254.8089°
orbit number at epoch: 0

The dashed part of the orbit path shows where the satellite is in the earth's shadow,  

DLR